Airport Information

KSKA - Fairchild AFB

KSKA 191858Z 24014G22KT 10SM -RA FEW080 SCT110 19/02 A2994 RMK AO2A RAB22E30RAB46 SLP133 P0000 T01860020 $


  • General Information

  • Coordinates: N 47°36'54"/ W 117°39'20"
  • Location: N/A
  • Surveyed Elevation: 2461 MSL

Operations

Flow Name Active Runways Conditions

Green background denotes normal operations.


Common Frequencies

Callsign Frequency Position Name

More at the Document Center


Charts